Back to catalog

STARLINK-37669

AliveCommunicationsVLEO
NORAD 69204·PAYLOAD·🇺🇸 United States

Launched May 25, 2026 from Cape Canaveral Space Force Station

Loading…

Next Passes (next 24 hours)

TLE

FreshSource: CelesTrak SupGP

Epoch: Sep 15, 2026, 04:32 UTC

1 69204C 26114Y   26258.18937500  .00036265  00000+0  10714-2 0  2585
2 69204  53.1569 138.3835 0001258  76.6227 268.6523 15.34374243    18

Track STARLINK-37669 in real time with AllMySat

Download on the App Store